Location: Cauquilla
(13.7377°S, 72.0864°W)
Time: 22:35:43
(UTC+00:00)

Daily predictions for brighter satellites

Satellite Brightness Start Highest point End
(mag) Time Altitude Azimuth Time Altitude Azimuth Time Altitude Azimuth
Atlas 2A Centaur Rocket 2.5 22:47:36 10° W 22:49:59 53° NNW 22:56:02 10° ENE
Meteor 1-24 Rocket 3.9 22:47:32 10° S 22:52:59 52° E 22:58:34 10° NNE
CZ-4B R/B 3.8 22:50:59 10° S 22:56:34 63° WSW 23:02:01 10° NNW
TELKOM 3 4.0 22:53:52 10° SW 22:56:49 75° NW 23:00:39 10° NE
Exosat Rocket 4.3 22:52:37 10° N 22:57:37 44° E 23:04:03 10° SSE
Lacrosse 4 Rocket 2.5 22:53:53 10° NW 22:57:44 44° WSW 23:01:38 10° S
AQUARIUS 4.2 22:53:27 10° SSE 22:57:59 85° ENE 23:02:28 10° N
ASC 2 Rocket 4.3 22:51:22 10° WNW 23:00:10 80° SSW 23:05:52 10° ESE
ASTRO E2 2.8 22:56:18 10° WSW 23:00:18 78° NNW 23:04:17 10° NE
NOAA 12 4.1 22:56:16 10° SSE 23:01:34 76° ENE 23:06:51 10° N
Cosmos 1340 Rocket 2.8 22:57:47 10° N 23:01:38 56° E 23:05:29 10° SSE
Cosmos 2098 Rocket 4.2 22:54:48 10° S 23:02:05 72° E 23:08:15 10° N
Cosmos 2219 3.2 22:56:32 10° NNW 23:02:10 85° ENE 23:07:52 10° SSE
CZ-2C R/B 4.3 23:01:31 10° E 23:02:29 10° ESE 23:03:27 10° ESE
CZ-4 R/B 3.2 23:00:30 10° ESE 23:02:34 14° E 23:04:35 10° NE
Cosmos 1939 Rocket 4.2 23:05:24 10° SE 23:08:36 21° E 23:11:43 10° NNE
GPS 2-17 Rocket1 3.9 23:04:48 10° NW 23:08:57 39° NNE 23:13:10 10° E
USA 215 4.1 23:03:48 10° ENE 23:09:10 28° SE 23:14:33 10° S
H-2A R/B 3.7 16:04:05 10° WNW 23:10:18 89° SSE 23:14:31 10° ENE
Skynet4D Del rocket 4.3 23:06:26 10° WNW 23:12:30 62° SSW 23:18:56 13° ESE
Cosmos 1898 Rocket 4.5 23:10:45 10° NNE 23:14:59 26° E 23:18:55 12° SE
Centaur AC-119 4.2 22:58:56 10° WNW 23:15:42 60° SSW 23:19:29 13° SE
Cosmos 1626 2.1 23:12:24 10° S 23:16:07 84° W 23:19:49 10° N
Ariane H10 4.3 22:57:52 10° WNW 23:16:35 41° N 23:20:40 10° ENE
Aureole 3 Rocket 4.0 23:12:13 10° N 23:19:51 78° E 23:25:16 10° S
ARGOS Delta rocket 3.9 23:17:37 10° S 23:22:02 72° W 23:26:32 10° NNW
SMAP 4.5 23:18:02 10° S 23:22:23 39° WSW 23:26:42 10° NW
GPS 2-14 Rocket1 2.6 23:19:14 10° WSW 23:23:01 80° NNW 23:26:23 13° ENE
Meteor 2-8 Rocket 4.4 23:22:06 10° N 23:28:03 60° E 23:34:02 10° SSE
Feng Yun 1-1 Rocket 4.5 23:22:29 10° SSE 23:28:25 85° WSW 23:34:21 10° NNW
Cosmos 1809 Rocket 4.4 23:25:18 10° S 23:31:32 83° E 23:37:43 10° N
Helios 1A Rocket 3.4 23:28:57 10° S 23:33:05 62° WSW 23:37:10 10° NNW
SL-24 R/B 4.0 23:38:14 10° N 23:42:27 75° WNW 23:46:17 10° SSW
Genesis I 3.3 23:41:20 10° S 23:45:09 48° ESE 23:48:55 10° NE
Gbstr 26 Del rocket 4.5 23:40:00 10° SW 23:45:19 45° WNW 23:49:38 10° NNE
H-2A R/B 3.8 23:47:07 15° ENE 23:47:07 15° ENE 23:49:04 10° NE
Cosmos 2297 Rocket 3.4 23:41:06 10° NW 23:46:23 40° WSW 23:51:41 10° S
Centaur D AC-29 1.0 23:43:20 10° WSW 23:46:51 76° SSE 23:49:38 22° ENE
GPS 2-04 Rocket1 4.4 23:45:54 10° W 23:48:57 27° NW 23:51:55 10° NNE
Cosmos 1937 Rocket 3.7 23:48:52 10° N 23:53:55 50° ENE 23:55:47 34° SE
YAOGAN 1 2.6 23:52:25 33° SE 23:54:10 58° E 23:58:24 10° N
